Find Starlink 3980

NORAD ID: 52611 Int'l Des: 2022-052 Owner: SPXS Country: US Constellation: starlink operational
LEOCIRCULAR

当前视图

正在加载3D地球...

About Starlink 3980

Starlink 3980 (NORAD 52611) is a starlink constellation satellite (v1.5) launched May 14, 2022 by SPXS of US. It operates in LEO, CIRCULAR orbit with a mass of 297.00 kg.

关于 Starlink 3980

正在加载描述...

即将过境

Passes for default location (London). Set your location on the main map for personalized predictions.

高度历史

Loading altitude history...

两行轨道根数

1 52611U 22052P 26176.25314386 -.00000210 00000-0 49164-5 0 9993
2 52611 53.1584 161.1041 0001224 65.6660 294.4459 15.08841806227026
Epoch: Jun 25, 2026 • Age: 12 hours

当前状态

高度 554.2 km
速度 7.58 km/s
星下点 -41.08°S, 168.16°W
发射日期 May 14, 2022
运行时间 4.1 years
类型 internet

技术详情

分类 Payload
质量 297.00 kg
干质量 275.00 kg
总质量 297.00 kg
长度 0.20 m
直径 2.80 m
跨度 9.00 m
形状 Box + pan
制造商 SPXS
平台类型 Starlink
阶段状态 In Orbit
所有者/国家 SPXS/US

Most Searched